Tracking 30922 objects as of 2-Jul-2025
HD Live streaming from Space Station
objects crossing your sky now

STARLINK-3801

Track STARLINK-3801 now!
10-day predictions
STARLINK-3801 is classified as:


NORAD ID: 52356
Int'l Code: 2022-045AB
Perigee: 545.9 km
Apogee: 547.8 km
Inclination: 53.2 °
Period: 95.4 minutes
Semi major axis: 6917 km
RCS: Unknown
Launch date: April 29, 2022
Source: United States (US)
Launch site: AIR FORCE EASTERN TEST RANGE (AFETR)
Your satellite tracking list
Your tracking list is empty




NASA's NSSDC Master Catalog

Two Line Element Set (TLE):
1 52356U 22045AB  25182.89298749  .00001726  00000-0  12645-3 0  9995
2 52356  53.2171 245.0212 0001350  89.4171 270.6976 15.08854625177924
Source of the keplerian elements: AFSPC